Location: Ku?niki
(51.4449°N, 17.8974°E)
Time: 06:41:57
(UTC+00:00)

ATLAS 3B R/B - Pass Details

Date: 18 September 2020
Orbit: 1016 x 1179 km, 63.8° (Epoch: 04 October)

Event Time Altitude Azimuth Distance (km) Brightness Sun altitude
Rises 17:40:10 0° 302° (WNW) 3,785 7.2 -7.8°
Reaches altitude 10° 17:43:05 10° 312° (NW) 2,847 6.0 -8.2°
Maximum altitude 17:49:02 32° 15° (NNE) 1,734 3.8 -9.1°
Drops below altitude 10° 17:55:09 10° 77° (ENE) 2,935 4.5 -10.1°
Enters shadow 17:55:34 - 79° (E) 3,065 4.6 -10.1°
